[ hide orbit diagram ]
For accurate long-term ephemerides, please instead use our Horizons system.This orbit viewer was implemented using two-body methods, and hence should not be used for determining accurate long-term trajectories (over several years or decades) or planetary encounter circumstances.
Orbital Elements at Epoch 2459200.5 (2020-Dec-17.0) TDB
Reference: JPL 17 (heliocentric ecliptic J2000)
Element | Value | Uncertainty (1-sigma) | Units |
e | .02405031724542294 | 4.5711e-08 | |
a | 2.620489975251925 | 1.363e-08 | au |
q | 2.557466360008666 | 1.1925e-07 | au |
i | 4.341927816085731 | 4.9012e-06 | deg |
node | 168.9441581978742 | 5.0474e-05 | deg |
peri | 198.0329544669673 | 9.6972e-05 | deg |
M | 95.87507982646937 | 8.1561e-05 | deg |
tp | 2458787.856110284757 (2019-Oct-31.35611028) | 0.00035112 | TDB |
period | 1549.430786043267 4.24 | 1.2089e-05 3.31e-08 | d yr |
n | .2323433890966635 | 1.8128e-09 | deg/d |
Q | 2.683513590495184 | 1.3958e-08 | au |
|
| | Orbit Determination Parameters
Additional Information
|
[ show covariance matrix ]
Physical Parameter Table
Parameter |
Symbol |
Value |
Units |
Sigma |
Reference |
Notes |
absolute magnitude |
H |
15.7 |
|
n/a |
MPO351583 |
|
|
103656 (2000 CV41) Discovered 2000-Feb-02 by LINEAR at Socorro |
Reference: 20051019/Numbers.arc | Last Updated: 2005-10-26 |
|
[ show close-approach data ]
|